WW5AH-9 Weather Reports


Display with metric or nautical units.
time (UTC)temp
F
wind
direction
speed
MPH
gust
MPH
rain 1hr
in
rain 24hr
in
rain mn
in
humidity
%
barometer
mb
20260506181602 56 36 5.0 9.0 0.00 0.04 0.04 93 1013.6
20260506181059 56 60 5.0 9.0 0.00 0.04 0.04 93 1014.0
20260506180555 56 169 2.0 6.0 0.00 0.04 0.04 93 1013.9
20260506180052 56 86 3.0 7.0 0.00 0.04 0.04 93 1013.8
20260506175548 56 39 2.0 4.0 0.00 0.04 0.04 93 1014.3
20260506175045 56 157 1.0 7.0 0.00 0.04 0.04 93 1014.8
20260506174544 56 326 1.0 1.0 0.00 0.04 0.04 93 1015.2
20260506174039 57 27 3.0 6.0 0.00 0.04 0.04 93 1015.4
20260506173537 56 32 1.0 7.0 0.00 0.04 0.04 93 1015.4
20260506173034 57 167 3.0 4.0 0.00 0.04 0.04 93 1015.0
20260506172532 57 65 1.0 7.0 0.00 0.04 0.04 93 1014.3
20260506172027 57 94 1.0 4.0 0.00 0.04 0.04 93 1014.2
20260506171525 57 357 1.0 7.0 0.00 0.04 0.04 92 1014.6
20260506171022 57 65 5.0 7.0 0.00 0.04 0.04 92 1014.5
20260506170520 57 5 0.0 3.0 0.00 0.04 0.04 92 1014.6
20260506170017 57 35 2.0 4.0 0.00 0.04 0.04 92 1014.6
20260506165516 57 29 2.0 4.0 0.00 0.04 0.04 93 1014.5
20260506165011 57 188 0.0 4.0 0.07 0.04 0.04 92 1014.6
20260506164508 57 33 4.0 7.0 0.07 0.04 0.04 92 1014.1
20260506164006 57 82 5.0 6.0 0.12 0.03 0.03 92 1014.2
20260506163501 57 87 3.0 9.0 0.07 0.02 0.02 92 1013.5
20260506162956 57 39 1.0 2.0 0.00 0.01 0.01 92 1013.5
20260506162454 57 68 1.0 4.0 0.00 0.01 0.01 92 1013.7
20260506161951 58 66 4.0 8.0 0.00 0.01 0.01 92 1014.2
20260506161449 58 81 0.0 7.0 0.00 0.01 0.01 92 1013.9
20260506160946 58 59 2.0 10.0 0.00 0.01 0.01 92 1014.1
20260506160443 59 97 1.0 3.0 0.00 0.01 0.01 92 1013.5
20260506155940 59 25 0.0 3.0 0.00 0.01 0.01 92 1013.5
20260506155438 59 79 2.0 7.0 0.05 0.01 0.01 92 1013.4
20260506153605 59 206 0.0 2.0 0.00 0.00 0.00 91 1013.1
20260506153102 59 182 0.0 0.0 0.00 0.00 0.00 91 1013.1
20260506152559 59 248 0.0 2.0 0.00 0.00 0.00 91 1013.2
20260506152057 59 275 1.0 1.0 0.00 0.00 0.00 91 1012.9
20260506151555 59 252 1.0 2.0 0.00 0.00 0.00 91 1012.7
20260506151052 59 349 0.0 2.0 0.00 0.00 0.00 91 1012.7
20260506150548 59 283 1.0 1.0 0.00 0.00 0.00 91 1012.5
20260506150045 59 310 0.0 1.0 0.00 0.00 0.00 90 1012.5
20260506145542 59 226 1.0 1.0 0.00 0.00 0.00 90 1012.5
20260506145039 59 311 0.0 1.0 0.00 0.00 0.00 90 1012.4
20260506144536 58 182 0.0 3.0 0.00 0.00 0.00 90 1012.3
20260506144033 59 253 2.0 2.0 0.00 0.00 0.00 90 1012.4
20260506143531 58 198 0.0 1.0 0.00 0.00 0.00 90 1012.0
20260506143029 58 258 1.0 2.0 0.00 0.00 0.00 89 1012.2
20260506142526 58 323 2.0 2.0 0.00 0.00 0.00 89 1012.3
20260506142024 58 332 2.0 3.0 0.00 0.00 0.00 89 1012.3
20260506141522 58 50 1.0 3.0 0.00 0.00 0.00 88 1012.3
20260506141020 58 303 3.0 4.0 0.00 0.00 0.00 88 1012.1
20260506140517 58 258 0.0 2.0 0.00 0.00 0.00 88 1011.9
20260506140014 58 163 0.0 2.0 0.00 0.00 0.00 87 1012.0
20260506135511 58 324 2.0 3.0 0.00 0.00 0.00 87 1011.9
20260506135007 59 263 1.0 3.0 0.00 0.00 0.00 87 1012.3
20260506134504 59 249 1.0 2.0 0.00 0.00 0.00 86 1011.9
20260506134000 59 340 1.0 2.0 0.00 0.00 0.00 86 1011.6
20260506133457 59 334 2.0 3.0 0.00 0.00 0.00 86 1011.8
20260506132954 59 269 1.0 3.0 0.00 0.00 0.00 85 1011.9
20260506132451 59 191 1.0 2.0 0.00 0.00 0.00 85 1011.7
20260506131948 60 324 2.0 3.0 0.00 0.00 0.00 85 1011.5
20260506131445 60 292 1.0 2.0 0.00 0.00 0.00 85 1011.4
20260506130942 60 346 1.0 2.0 0.00 0.00 0.00 85 1011.4
20260506130438 60 221 1.0 2.0 0.00 0.00 0.00 84 1011.5
20260506125936 60 221 0.0 3.0 0.00 0.00 0.00 84 1011.5
20260506125434 60 209 1.0 3.0 0.00 0.00 0.00 85 1011.3
20260506124932 60 314 2.0 3.0 0.00 0.00 0.00 85 1011.0
20260506124429 60 356 2.0 2.0 0.00 0.00 0.00 85 1011.0
20260506123927 60 274 0.0 1.0 0.00 0.00 0.00 85 1011.1
20260506123425 60 286 1.0 2.0 0.00 0.00 0.00 85 1010.9
20260506122922 60 227 0.0 1.0 0.00 0.00 0.00 85 1010.8
20260506122419 60 224 1.0 1.0 0.00 0.00 0.00 85 1010.8
20260506121918 60 193 0.0 1.0 0.00 0.00 0.00 85 1010.7
20260506121414 60 275 2.0 2.0 0.00 0.00 0.00 86 1010.5
20260506120911 60 269 0.0 1.0 0.00 0.00 0.00 86 1010.4
20260506120409 60 236 0.0 1.0 0.00 0.00 0.00 86 1010.5
20260506115906 60 312 1.0 2.0 0.00 0.00 0.00 86 1010.4
20260506115404 60 306 1.0 2.0 0.00 0.00 0.00 86 1010.2
20260506114902 60 223 0.0 0.0 0.00 0.00 0.00 86 1010.0
20260506114359 60 196 0.0 0.0 0.00 0.00 0.00 86 1009.5
20260506113858 60 321 1.0 3.0 0.00 0.00 0.00 86 1009.6
20260506113355 60 280 2.0 2.0 0.00 0.00 0.00 86 1009.7
20260506112851 60 206 0.0 1.0 0.00 0.00 0.00 87 1009.5
20260506112348 60 325 2.0 3.0 0.00 0.00 0.00 87 1009.4
20260506111846 60 221 0.0 1.0 0.00 0.00 0.00 87 1009.5
20260506111344 60 324 1.0 2.0 0.00 0.00 0.00 87 1009.3
20260506110841 60 218 0.0 1.0 0.00 0.00 0.00 87 1009.1
20260506110338 60 329 1.0 2.0 0.00 0.00 0.00 87 1008.9
20260506105835 60 216 0.0 1.0 0.00 0.00 0.00 87 1008.6
20260506105331 60 244 0.0 0.0 0.00 0.00 0.00 86 1008.9
20260506104829 60 208 0.0 1.0 0.00 0.00 0.00 86 1008.9
20260506104326 60 180 0.0 1.0 0.00 0.00 0.00 86 1008.7
20260506103824 60 204 0.0 2.0 0.00 0.00 0.00 86 1008.9
20260506103321 60 265 2.0 3.0 0.00 0.00 0.00 85 1008.9
20260506102819 60 242 0.0 0.0 0.00 0.00 0.00 85 1008.8
20260506102316 60 271 1.0 2.0 0.00 0.00 0.00 85 1008.7
20260506101814 60 300 2.0 2.0 0.00 0.00 0.00 85 1008.7
20260506101309 60 228 0.0 1.0 0.00 0.00 0.00 85 1008.9
20260506100808 61 213 0.0 0.0 0.00 0.00 0.00 85 1008.4
20260506100305 61 248 0.0 0.0 0.00 0.00 0.00 85 1008.6
20260506095804 61 228 0.0 0.0 0.00 0.00 0.00 84 1008.4
20260506095300 61 236 0.0 0.0 0.00 0.00 0.00 84 1008.5
20260506094757 61 213 0.0 0.0 0.00 0.00 0.00 84 1008.5
20260506094255 61 216 0.0 0.0 0.00 0.00 0.00 84 1008.7
20260506093754 61 217 0.0 0.0 0.00 0.00 0.00 83 1008.5
20260506093250 61 190 0.0 2.0 0.00 0.00 0.00 83 1008.3
20260506092749 61 27 0.0 1.0 0.00 0.00 0.00 82 1008.6
20260506092246 61 230 2.0 3.0 0.00 0.00 0.00 82 1008.5
20260506091743 61 226 0.0 1.0 0.00 0.00 0.00 81 1008.4
20260506091240 62 216 0.0 3.0 0.00 0.00 0.00 81 1008.3
20260506090738 62 190 0.0 2.0 0.00 0.00 0.00 81 1008.0
20260506090235 62 225 1.0 2.0 0.00 0.00 0.00 81 1008.0
20260506085732 62 217 0.0 1.0 0.00 0.00 0.00 81 1007.9
20260506085228 62 176 1.0 1.0 0.00 0.00 0.00 81 1008.1
20260506084725 62 188 0.0 0.0 0.00 0.00 0.00 81 1008.1
20260506084221 62 250 3.0 3.0 0.00 0.00 0.00 81 1008.0
20260506083718 62 191 0.0 1.0 0.00 0.00 0.00 81 1008.3
20260506083216 62 238 1.0 2.0 0.00 0.00 0.00 81 1008.0
20260506082713 62 215 0.0 4.0 0.00 0.00 0.00 81 1007.9
20260506082208 63 245 0.0 1.0 0.00 0.00 0.00 81 1008.0
20260506081706 63 252 0.0 1.0 0.00 0.00 0.00 81 1008.0
20260506081204 63 203 0.0 0.0 0.00 0.00 0.00 81 1007.9
20260506080701 63 250 1.0 6.0 0.00 0.00 0.00 81 1007.7
20260506080157 63 209 2.0 6.0 0.00 0.00 0.00 80 1007.7
20260506073142 65 284 4.0 7.0 0.00 0.00 0.00 81 1007.6
20260506072638 65 304 0.0 6.0 0.00 0.00 0.00 80 1007.5
20260506072136 65 242 4.0 6.0 0.00 0.00 0.00 80 1007.5
20260506071633 66 273 0.0 2.0 0.00 0.00 0.00 80 1007.1
20260506071131 66 212 1.0 2.0 0.00 0.00 0.00 80 1007.5
20260506070628 66 284 4.0 6.0 0.00 0.00 0.00 80 1007.3
20260506070125 66 244 1.0 1.0 0.00 0.00 0.00 80 1007.1
20260506062103 69 320 0.0 2.0 0.00 0.00 0.00 81 1007.1
20260506061558 70 200 0.0 3.0 0.00 0.00 0.00 82 1006.8
20260506061056 70 271 1.0 2.0 0.00 0.00 0.00 82 1006.7
20260506060554 71 255 2.0 3.0 0.00 0.00 0.00 82 1006.6
20260506051023 76 207 0.0 0.0 0.00 0.00 0.00 85 1006.3
20260506050521 76 187 0.0 0.0 0.00 0.00 0.00 85 1006.3
20260506045011 76 182 2.0 3.0 0.00 0.00 0.00 84 1006.1
20260506044509 76 127 1.0 1.0 0.00 0.00 0.00 84 1006.2
20260506044006 76 190 0.0 4.0 0.00 0.00 0.00 84 1006.1
20260506043503 76 180 1.0 3.0 0.00 0.00 0.00 84 1006.2
20260506043000 76 164 1.0 4.0 0.00 0.00 0.00 84 1006.0
20260506042454 76 186 0.0 1.0 0.00 0.00 0.00 84 1006.1
20260506041951 76 195 1.0 3.0 0.00 0.00 0.00 84 1005.9
20260506041450 76 185 2.0 3.0 0.00 0.00 0.00 84 1006.0
20260506040946 76 153 2.0 4.0 0.00 0.00 0.00 84 1006.1
20260506040445 76 184 0.0 0.0 0.00 0.00 0.00 84 1006.1
20260506035940 76 152 1.0 1.0 0.00 0.00 0.00 84 1005.9
20260506035438 76 172 2.0 2.0 0.00 0.00 0.00 84 1006.2
20260506034934 76 180 0.0 2.0 0.00 0.00 0.00 84 1006.2
20260506034432 76 198 0.0 0.0 0.00 0.00 0.00 83 1006.4
20260506033929 76 182 0.0 0.0 0.00 0.00 0.00 83 1006.4
20260506033426 76 206 0.0 0.0 0.00 0.00 0.00 83 1005.9
20260506032923 76 188 0.0 1.0 0.00 0.00 0.00 83 1005.7
20260506032420 76 187 0.0 1.0 0.00 0.00 0.00 83 1005.6
20260506031916 76 193 0.0 0.0 0.00 0.00 0.00 82 1005.5
20260506031413 76 184 0.0 0.0 0.00 0.00 0.00 82 1005.1
20260506030911 76 207 0.0 2.0 0.00 0.00 0.00 82 1005.5
20260506030409 77 85 0.0 2.0 0.00 0.00 0.00 82 1004.9
20260506025905 77 168 1.0 2.0 0.00 0.00 0.00 82 1005.2
20260506025402 77 202 0.0 1.0 0.00 0.00 0.00 82 1005.5
20260506024900 77 197 0.0 1.0 0.00 0.00 0.00 81 1005.2
20260506024357 77 180 0.0 2.0 0.00 0.00 0.00 82 1005.3
20260506023852 76 185 0.0 2.0 0.00 0.00 0.00 81 1005.6
20260506023350 76 193 1.0 2.0 0.00 0.00 0.00 81 1004.7
20260506022846 76 171 0.0 1.0 0.00 0.00 0.00 81 1004.6
20260506022343 77 212 0.0 1.0 0.00 0.00 0.00 81 1004.7
20260506021841 77 181 0.0 2.0 0.00 0.00 0.00 80 1004.1
20260506021338 77 148 2.0 4.0 0.00 0.00 0.00 80 1004.2
20260506020834 77 165 0.0 2.0 0.00 0.00 0.00 80 1004.5
20260506020333 77 155 1.0 1.0 0.00 0.00 0.00 79 1004.9
20260506015830 77 169 0.0 1.0 0.00 0.00 0.00 79 1004.7
20260506015328 78 166 2.0 2.0 0.00 0.00 0.00 79 1005.1
20260506014824 78 175 1.0 2.0 0.00 0.00 0.00 79 1005.1
20260506014321 77 153 2.0 4.0 0.00 0.00 0.00 79 1004.7
20260506013817 77 183 1.0 2.0 0.00 0.00 0.00 79 1004.9
20260506013315 77 181 1.0 2.0 0.00 0.00 0.00 78 1004.6
20260506012811 78 154 1.0 2.0 0.00 0.00 0.00 78 1004.5
20260506012308 78 123 1.0 2.0 0.00 0.00 0.00 78 1004.7
20260506011805 78 177 1.0 2.0 0.00 0.00 0.00 77 1004.9
20260506011301 78 196 0.0 3.0 0.00 0.00 0.00 77 1005.0
20260506010800 78 197 1.0 3.0 0.00 0.00 0.00 77 1004.5
20260506010258 79 181 1.0 1.0 0.00 0.00 0.00 76 1004.7
20260506005754 79 167 1.0 2.0 0.00 0.00 0.00 76 1004.6
20260506005251 79 186 0.0 2.0 0.00 0.00 0.00 76 1004.6
20260506004747 79 172 2.0 3.0 0.00 0.00 0.00 75 1004.4
20260506004245 79 207 2.0 3.0 0.00 0.00 0.00 75 1004.5
20260506003740 79 177 0.0 3.0 0.00 0.00 0.00 75 1004.2
20260506003237 80 112 1.0 3.0 0.00 0.00 0.00 74 1004.2
20260506002733 80 188 0.0 2.0 0.00 0.00 0.00 74 1004.3
20260506002230 80 197 0.0 0.0 0.00 0.00 0.00 73 1004.1
20260506001725 80 242 1.0 2.0 0.00 0.00 0.00 73 1003.9
20260506001223 80 185 2.0 3.0 0.00 0.00 0.00 73 1004.0
20260506000719 81 189 2.0 3.0 0.00 0.00 0.00 72 1004.2
20260506000219 81 174 1.0 3.0 0.00 0.00 0.00 72 1004.1
20260505235715 81 208 2.0 4.0 0.00 0.00 0.00 72 1004.1
20260505235213 81 176 2.0 4.0 0.00 0.00 0.00 72 1004.4
20260505234709 81 193 0.0 0.0 0.00 0.00 0.00 71 1004.3
20260505234206 82 192 0.0 3.0 0.00 0.00 0.00 71 1004.2
20260505233702 82 220 2.0 3.0 0.00 0.00 0.00 70 1003.9
20260505233200 82 194 2.0 7.0 0.00 0.00 0.00 70 1003.7
20260505232658 82 216 4.0 6.0 0.00 0.00 0.00 71 1003.6
20260505232155 82 166 3.0 6.0 0.00 0.00 0.00 71 1003.6
20260505231651 81 205 1.0 4.0 0.00 0.00 0.00 71 1003.6
20260505231150 82 183 2.0 4.0 0.00 0.00 0.00 70 1003.4
20260505230648 82 201 3.0 6.0 0.00 0.00 0.00 70 1003.6
20260505230144 82 164 6.0 10.0 0.00 0.00 0.00 69 1003.5
20260505225635 83 151 2.0 8.0 0.00 0.00 0.00 68 1003.8
20260505225132 83 167 0.0 7.0 0.00 0.00 0.00 69 1003.8
20260505224628 82 224 4.0 7.0 0.00 0.00 0.00 68 1003.9
20260505224126 83 178 1.0 8.0 0.00 0.00 0.00 67 1003.7
20260505223623 84 227 3.0 3.0 0.00 0.00 0.00 66 1004.1
20260505223119 84 205 0.0 6.0 0.00 0.00 0.00 67 1003.9
20260505222616 84 153 2.0 3.0 0.00 0.00 0.00 66 1003.7
20260505222112 85 203 1.0 7.0 0.00 0.00 0.00 65 1003.6
20260505221609 85 176 0.0 7.0 0.00 0.00 0.00 65 1003.7
20260505221105 85 225 3.0 4.0 0.00 0.00 0.00 65 1003.8
20260505220602 85 341 2.0 3.0 0.00 0.00 0.00 66 1003.7
20260505220100 84 252 1.0 7.0 0.00 0.00 0.00 67 1003.9
20260505215558 84 10 0.0 2.0 0.00 0.00 0.00 68 1004.2
20260505215055 83 256 5.0 6.0 0.00 0.00 0.00 69 1003.9
20260505214553 82 184 0.0 3.0 0.00 0.00 0.00 69 1004.1
20260505214049 83 177 3.0 8.0 0.00 0.00 0.00 68 1003.9
20260505213548 83 175 0.0 7.0 0.00 0.00 0.00 67 1004.0
20260505213044 83 146 1.0 7.0 0.00 0.00 0.00 68 1004.0
20260505212540 83 215 3.0 8.0 0.00 0.00 0.00 68 1004.2
20260505212038 82 180 2.0 8.0 0.00 0.00 0.00 68 1003.9
20260505211534 82 183 5.0 11.0 0.00 0.00 0.00 68 1004.2
20260505211031 82 137 2.0 10.0 0.00 0.00 0.00 68 1004.3
20260505210528 82 170 4.0 8.0 0.00 0.00 0.00 68 1004.1
20260505210025 82 184 8.0 14.0 0.00 0.00 0.00 68 1004.0
20260505205523 83 202 2.0 10.0 0.00 0.00 0.00 67 1004.1
20260505205020 83 181 10.0 13.0 0.00 0.00 0.00 66 1003.9
20260505204518 84 140 6.0 13.0 0.00 0.00 0.00 65 1004.2
20260505204015 84 196 1.0 3.0 0.00 0.00 0.00 66 1004.0
20260505203511 84 293 1.0 8.0 0.00 0.00 0.00 66 1004.3
20260505203008 85 305 2.0 9.0 0.00 0.00 0.00 65 1004.1
20260505202504 85 175 4.0 9.0 0.00 0.00 0.00 66 1004.3
20260505202000 84 164 6.0 8.0 0.00 0.00 0.00 67 1004.0
20260505201457 83 260 3.0 7.0 0.00 0.00 0.00 67 1004.4
20260505200955 83 79 5.0 9.0 0.00 0.00 0.00 68 1004.4
20260505200453 82 162 3.0 7.0 0.00 0.00 0.00 69 1004.4
20260505195948 83 151 7.0 10.0 0.00 0.00 0.00 67 1004.4
20260505195446 84 222 2.0 4.0 0.00 0.00 0.00 67 1004.4
20260505194943 83 154 1.0 6.0 0.00 0.00 0.00 69 1004.6
20260505194440 83 164 3.0 6.0 0.00 0.00 0.00 68 1004.7
20260505193940 83 289 2.0 7.0 0.00 0.00 0.00 67 1004.5
20260505193438 84 203 6.0 8.0 0.00 0.00 0.00 67 1004.9
20260505192935 84 218 2.0 8.0 0.00 0.00 0.00 68 1004.9
20260505192434 83 180 2.0 8.0 0.00 0.00 0.00 68 1005.1
20260505191931 82 193 1.0 4.0 0.00 0.00 0.00 69 1005.1
20260505191430 83 244 6.0 9.0 0.00 0.00 0.00 70 1005.3
20260505190926 82 93 2.0 3.0 0.00 0.00 0.00 70 1005.1
20260505190421 81 125 2.0 8.0 0.00 0.00 0.00 71 1004.9
20260505185916 80 250 2.0 6.0 0.00 0.00 0.00 72 1005.0
20260505185414 80 201 4.0 6.0 0.00 0.00 0.00 72 1004.7
20260505184910 80 194 5.0 8.0 0.00 0.00 0.00 71 1004.6
20260505184407 80 230 0.0 9.0 0.00 0.00 0.00 72 1004.6
20260505183904 80 209 4.0 8.0 0.00 0.00 0.00 72 1004.9
20260505183401 80 153 5.0 11.0 0.00 0.00 0.00 71 1004.1
20260505182857 81 138 5.0 11.0 0.00 0.00 0.00 72 1004.2
20260505182354 80 155 10.0 13.0 0.00 0.00 0.00 73 1004.1